Location: Arbon
(43.0005°N, 0.7472°E)
Time: 06:47:18
(UTC+00:00)

S-56A Canister/Altair - All Passes

Search period start: 27 November 2020 00:00
Search period end: 07 December 2020 00:00
Orbit: 633 x 2499 km, 38.9° (Epoch: 26 November)

Date Brightness Start Highest point End Pass type
(mag) Time Alt. Az. Time Alt. Az. Time Alt. Az.
27 Nov - 01:09:02 10° W 01:13:49 27° SSW 01:17:46 10° SSE night (unlit)
27 Nov - 18:19:34 10° SSW 18:29:25 30° SSE 18:36:40 10° E visible
27 Nov - 20:23:49 10° WSW 20:33:54 54° SSE 20:40:35 10° E visible
27 Nov - 22:29:55 10° W 22:38:03 62° S 22:43:32 10° ESE visible
28 Nov - 00:35:51 10° W 00:41:21 32° SSW 00:45:37 10° SE night (unlit)
28 Nov - 17:46:22 10° SSW 17:56:23 28° SSE 18:03:56 10° E visible
28 Nov - 19:50:16 10° SW 20:01:01 53° SSE 20:08:08 10° E visible
28 Nov - 21:56:26 10° W 22:05:20 64° S 22:11:11 10° ESE visible
29 Nov - 00:02:35 10° W 00:08:51 38° SSW 00:13:28 10° SE night (unlit)
29 Nov - 17:13:15 10° SSW 17:23:19 27° SSE 17:31:07 10° E visible
29 Nov - 19:16:43 10° SW 19:28:03 51° SSE 19:35:39 10° E visible
29 Nov - 21:22:55 10° W 21:32:33 66° S 21:38:50 10° E visible
29 Nov - 23:29:15 10° W 23:36:17 43° SSW 23:41:16 10° SE night (unlit)
30 Nov - 01:37:01 10° WSW 01:38:44 11° SW 01:40:20 10° SSW night (unlit)
30 Nov - 16:40:13 10° S 16:50:12 25° SE 16:58:11 10° E visible
30 Nov - 18:43:10 10° SW 18:55:01 49° SSE 19:03:07 10° E visible
30 Nov - 20:49:18 10° WSW 20:59:43 67° S 21:06:27 10° E visible
30 Nov - 22:55:51 10° W 23:03:41 49° SSW 23:09:03 10° SE visible
01 Dec - 01:02:57 10° WSW 01:06:17 15° SW 01:09:12 10° S night (unlit)
01 Dec - 16:07:19 10° S 16:17:04 23° SE 16:25:07 10° E daylight
01 Dec - 18:09:38 10° SW 18:21:56 48° SSE 18:30:32 10° E visible
01 Dec - 20:15:38 10° WSW 20:26:48 67° S 20:34:02 10° E visible
01 Dec - 22:22:22 10° W 22:31:01 55° SSW 22:36:47 10° ESE visible
02 Dec - 00:29:16 10° W 00:33:51 19° SW 00:37:34 10° S night (unlit)
02 Dec - 15:34:33 10° S 15:43:54 21° SE 15:51:54 10° E daylight
02 Dec - 17:36:08 10° SW 17:48:47 46° SSE 17:57:52 10° E visible
02 Dec - 19:41:56 10° WSW 19:53:48 67° S 20:01:35 10° E visible
02 Dec - 21:48:48 10° W 21:58:17 59° SSW 22:04:30 10° ESE visible
02 Dec - 23:55:41 10° W 00:01:22 24° SW 00:05:45 10° SSE night (unlit)
03 Dec - 15:02:00 10° S 15:10:45 19° SE 15:18:28 10° E daylight
03 Dec - 17:02:42 10° SW 17:15:34 43° SSE 17:25:08 10° E visible
03 Dec - 19:08:12 10° WSW 19:20:45 66° S 19:29:05 10° E visible
03 Dec - 21:15:10 10° W 21:25:29 63° SSW 21:32:09 10° ESE visible
03 Dec - 23:22:06 10° W 23:28:51 29° SW 23:33:48 10° SSE night (unlit)
04 Dec - 14:29:42 10° SSE 14:37:35 17° SE 14:44:46 10° ESE daylight
04 Dec - 16:29:20 10° SSW 16:42:19 41° SSE 16:52:20 10° E visible
04 Dec - 18:34:29 10° WSW 18:47:36 65° SSE 18:56:31 10° E visible
04 Dec - 20:41:28 10° W 20:52:35 67° S 20:59:47 10° ESE visible
04 Dec - 22:48:29 10° W 22:56:17 35° SSW 23:01:46 10° SSE visible
05 Dec - 13:57:45 10° SSE 14:04:25 14° SE 14:10:41 10° ESE daylight
05 Dec - 15:56:04 10° SSW 16:09:02 39° SSE 16:19:25 10° E daylight
05 Dec - 18:00:47 10° WSW 18:14:24 64° SSE 18:23:54 10° E visible
05 Dec - 20:07:43 10° W 20:19:37 69° S 20:27:21 10° ESE visible
05 Dec - 22:14:51 10° W 22:23:38 41° SSW 22:29:38 10° SE visible
06 Dec - 13:26:29 10° SSE 13:31:18 12° SE 13:35:56 10° ESE daylight
06 Dec - 15:22:55 10° SSW 15:35:43 36° SE 15:46:25 10° E daylight
06 Dec - 17:27:07 10° WSW 17:41:08 62° SSE 17:51:14 10° E visible
06 Dec - 19:33:56 10° W 19:46:34 71° S 19:54:54 10° ESE visible
06 Dec - 21:41:10 10° W 21:50:55 46° SSW 21:57:27 10° SE visible
06 Dec - 23:49:55 10° WSW 23:53:22 13° SW 23:56:22 10° SSW night (unlit)
